| time (UTC) | temp C | wind direction | speed KPH | gust KPH | rain 1hr cm | rain 24hr cm | rain mn cm | humidity % | barometer mb |
| 20260509143503 | 23 | 243 | 0.0 | 0.0 | 0.00 | 0.00 | 0.00 | 17 | 1021.2 |
| 20260509143004 | 23 | 243 | 0.0 | 1.6 | 0.00 | 0.00 | 0.00 | 17 | 1021.2 |
| 20260509142504 | 22 | 243 | 0.0 | 1.6 | 0.00 | 0.00 | 0.00 | 17 | 1021.3 |
| 20260509142003 | 22 | 243 | 0.0 | 0.0 | 0.00 | 0.00 | 0.00 | 17 | 1021.2 |
| 20260509141504 | 22 | 243 | 0.0 | 0.0 | 0.00 | 0.00 | 0.00 | 18 | 1021.2 |
| 20260509135503 | 20 | 243 | 1.6 | 4.8 | 0.00 | 0.00 | 0.00 | 21 | 1021.0 |
| 20260509135004 | 20 | 242 | 1.6 | 4.8 | 0.00 | 0.00 | 0.00 | 21 | 1020.9 |
| 20260509134503 | 19 | 242 | 1.6 | 4.8 | 0.00 | 0.00 | 0.00 | 21 | 1020.8 |
| 20260509134003 | 19 | 241 | 0.0 | 3.2 | 0.00 | 0.00 | 0.00 | 22 | 1020.9 |
| 20260509133504 | 18 | 240 | 3.2 | 8.0 | 0.00 | 0.00 | 0.00 | 22 | 1020.6 |
| 20260509133003 | 17 | 261 | 3.2 | 4.8 | 0.00 | 0.00 | 0.00 | 23 | 1020.6 |
| 20260509132504 | 17 | 236 | 0.0 | 3.2 | 0.00 | 0.00 | 0.00 | 24 | 1020.6 |
| 20260509132003 | 17 | 235 | 0.0 | 3.2 | 0.00 | 0.00 | 0.00 | 24 | 1020.6 |
| 20260509131503 | 17 | 235 | 0.0 | 1.6 | 0.00 | 0.00 | 0.00 | 24 | 1020.4 |
| 20260509130503 | 17 | 235 | 0.0 | 3.2 | 0.00 | 0.00 | 0.00 | 24 | 1020.4 |
| 20260509130003 | 16 | 235 | 1.6 | 4.8 | 0.00 | 0.00 | 0.00 | 24 | 1020.3 |
| 20260509125503 | 16 | 238 | 1.6 | 3.2 | 0.00 | 0.00 | 0.00 | 25 | 1020.3 |
| 20260509125004 | 16 | 236 | 1.6 | 3.2 | 0.00 | 0.00 | 0.00 | 25 | 1020.2 |
| 20260509124503 | 16 | 236 | 0.0 | 1.6 | 0.00 | 0.00 | 0.00 | 25 | 1020.2 |
| 20260509124004 | 16 | 236 | 0.0 | 1.6 | 0.00 | 0.00 | 0.00 | 25 | 1020.1 |
| 20260509123503 | 16 | 236 | 0.0 | 1.6 | 0.00 | 0.00 | 0.00 | 25 | 1020.1 |
| 20260509123005 | 16 | 236 | 0.0 | 1.6 | 0.00 | 0.00 | 0.00 | 25 | 1019.9 |
| 20260509122504 | 16 | 236 | 0.0 | 0.0 | 0.00 | 0.00 | 0.00 | 25 | 1020.1 |
| 20260509121503 | 16 | 236 | 0.0 | 1.6 | 0.00 | 0.00 | 0.00 | 25 | 1020.1 |
| 20260509121004 | 16 | 236 | 0.0 | 3.2 | 0.00 | 0.00 | 0.00 | 25 | 1020.2 |
| 20260509120503 | 16 | 236 | 0.0 | 3.2 | 0.00 | 0.00 | 0.00 | 25 | 1020.1 |
| 20260509120004 | 16 | 236 | 0.0 | 3.2 | 0.00 | 0.00 | 0.00 | 25 | 1020.1 |
| 20260509115504 | 16 | 236 | 0.0 | 0.0 | 0.00 | 0.00 | 0.00 | 25 | 1020.1 |
| 20260509114503 | 16 | 236 | 0.0 | 3.2 | 0.00 | 0.00 | 0.00 | 25 | 1020.1 |
| 20260509114004 | 16 | 236 | 1.6 | 3.2 | 0.00 | 0.00 | 0.00 | 25 | 1020.1 |
| 20260509113505 | 17 | 235 | 0.0 | 0.0 | 0.00 | 0.00 | 0.00 | 24 | 1020.1 |
| 20260509112504 | 17 | 234 | 1.6 | 3.2 | 0.00 | 0.00 | 0.00 | 24 | 1020.1 |
| 20260509112003 | 17 | 234 | 0.0 | 3.2 | 0.00 | 0.00 | 0.00 | 23 | 1020.2 |
| 20260509111504 | 17 | 234 | 0.0 | 1.6 | 0.00 | 0.00 | 0.00 | 23 | 1020.1 |
| 20260509111003 | 18 | 234 | 0.0 | 3.2 | 0.00 | 0.00 | 0.00 | 23 | 1020.1 |
| 20260509110504 | 18 | 235 | 1.6 | 4.8 | 0.00 | 0.00 | 0.00 | 23 | 1020.2 |
| 20260509110003 | 18 | 244 | 4.8 | 11.3 | 0.00 | 0.00 | 0.00 | 22 | 1020.2 |
| 20260509105503 | 18 | 246 | 6.4 | 12.9 | 0.00 | 0.00 | 0.00 | 22 | 1020.2 |
| 20260509105004 | 18 | 263 | 4.8 | 9.7 | 0.00 | 0.00 | 0.00 | 23 | 1020.1 |
| 20260509104504 | 18 | 255 | 4.8 | 8.0 | 0.00 | 0.00 | 0.00 | 23 | 1020.1 |
| 20260509104003 | 18 | 238 | 3.2 | 8.0 | 0.00 | 0.00 | 0.00 | 23 | 1020.1 |
| 20260509103004 | 17 | 242 | 0.0 | 0.0 | 0.00 | 0.00 | 0.00 | 25 | 1020.2 |
| 20260509102004 | 16 | 244 | 0.0 | 0.0 | 0.00 | 0.00 | 0.00 | 25 | 1020.3 |
| 20260509101504 | 16 | 245 | 0.0 | 0.0 | 0.00 | 0.00 | 0.00 | 25 | 1020.3 |
| 20260509101004 | 16 | 245 | 0.0 | 0.0 | 0.00 | 0.00 | 0.00 | 25 | 1020.3 |
| 20260509100003 | 16 | 245 | 0.0 | 0.0 | 0.00 | 0.00 | 0.00 | 24 | 1020.3 |
| 20260509095004 | 16 | 245 | 0.0 | 0.0 | 0.00 | 0.00 | 0.00 | 25 | 1020.4 |
| 20260509094004 | 16 | 245 | 0.0 | 0.0 | 0.00 | 0.00 | 0.00 | 24 | 1020.4 |
| 20260509093504 | 16 | 245 | 0.0 | 0.0 | 0.00 | 0.00 | 0.00 | 24 | 1020.4 |
| 20260509092503 | 17 | 245 | 0.0 | 0.0 | 0.00 | 0.00 | 0.00 | 23 | 1020.5 |
| 20260509092004 | 17 | 245 | 0.0 | 0.0 | 0.00 | 0.00 | 0.00 | 23 | 1020.5 |
| 20260509091503 | 17 | 245 | 0.0 | 1.6 | 0.00 | 0.00 | 0.00 | 23 | 1020.5 |
| 20260509091003 | 18 | 245 | 0.0 | 0.0 | 0.00 | 0.00 | 0.00 | 22 | 1020.6 |
| 20260509090503 | 18 | 245 | 0.0 | 1.6 | 0.00 | 0.00 | 0.00 | 22 | 1020.5 |
| 20260509085504 | 18 | 245 | 0.0 | 3.2 | 0.00 | 0.00 | 0.00 | 22 | 1020.6 |
| 20260509085004 | 18 | 248 | 0.0 | 3.2 | 0.00 | 0.00 | 0.00 | 22 | 1020.7 |
| 20260509084503 | 19 | 248 | 0.0 | 4.8 | 0.00 | 0.00 | 0.00 | 21 | 1020.6 |
| 20260509084004 | 19 | 263 | 0.0 | 4.8 | 0.00 | 0.00 | 0.00 | 21 | 1020.7 |
| 20260509083504 | 19 | 249 | 0.0 | 3.2 | 0.00 | 0.00 | 0.00 | 21 | 1020.6 |
| 20260509083003 | 19 | 246 | 0.0 | 1.6 | 0.00 | 0.00 | 0.00 | 21 | 1020.6 |
| 20260509082504 | 20 | 248 | 0.0 | 1.6 | 0.00 | 0.00 | 0.00 | 20 | 1020.9 |
| 20260509082004 | 20 | 239 | 0.0 | 0.0 | 0.00 | 0.00 | 0.00 | 20 | 1020.9 |
| 20260509081504 | 20 | 236 | 0.0 | 0.0 | 0.00 | 0.00 | 0.00 | 20 | 1020.9 |
| 20260509081005 | 20 | 240 | 0.0 | 1.6 | 0.00 | 0.00 | 0.00 | 20 | 1021.0 |
| 20260509075503 | 19 | 227 | 0.0 | 0.0 | 0.00 | 0.00 | 0.00 | 21 | 1020.9 |
| 20260509075004 | 19 | 227 | 0.0 | 3.2 | 0.00 | 0.00 | 0.00 | 21 | 1020.9 |
| 20260509074504 | 19 | 227 | 0.0 | 0.0 | 0.00 | 0.00 | 0.00 | 20 | 1021.1 |
| 20260509074004 | 20 | 227 | 0.0 | 0.0 | 0.00 | 0.00 | 0.00 | 20 | 1021.0 |
| 20260509073505 | 20 | 227 | 0.0 | 0.0 | 0.00 | 0.00 | 0.00 | 21 | 1021.0 |
| 20260509073004 | 20 | 227 | 0.0 | 0.0 | 0.00 | 0.00 | 0.00 | 21 | 1021.0 |
| 20260509072504 | 20 | 232 | 0.0 | 0.0 | 0.00 | 0.00 | 0.00 | 21 | 1021.0 |
| 20260509072003 | 20 | 229 | 0.0 | 0.0 | 0.00 | 0.00 | 0.00 | 21 | 1021.1 |
| 20260509071504 | 20 | 228 | 0.0 | 0.0 | 0.00 | 0.00 | 0.00 | 21 | 1021.1 |
| 20260509071003 | 19 | 229 | 0.0 | 0.0 | 0.00 | 0.00 | 0.00 | 21 | 1021.1 |
| 20260509070504 | 20 | 229 | 0.0 | 0.0 | 0.00 | 0.00 | 0.00 | 21 | 1021.2 |
| 20260509070004 | 19 | 229 | 0.0 | 0.0 | 0.00 | 0.00 | 0.00 | 22 | 1021.2 |
| 20260509065504 | 19 | 229 | 0.0 | 0.0 | 0.00 | 0.00 | 0.00 | 22 | 1021.2 |
| 20260509065004 | 19 | 229 | 0.0 | 0.0 | 0.00 | 0.00 | 0.00 | 23 | 1021.2 |
| 20260509064503 | 18 | 228 | 0.0 | 0.0 | 0.00 | 0.00 | 0.00 | 23 | 1021.3 |
| 20260509064003 | 19 | 229 | 0.0 | 0.0 | 0.00 | 0.00 | 0.00 | 23 | 1021.3 |
| 20260509062504 | 19 | 225 | 0.0 | 0.0 | 0.00 | 0.00 | 0.00 | 24 | 1021.2 |
| 20260509062004 | 18 | 223 | 0.0 | 0.0 | 0.00 | 0.00 | 0.00 | 24 | 1021.2 |
| 20260509061503 | 18 | 201 | 0.0 | 0.0 | 0.00 | 0.00 | 0.00 | 24 | 1021.1 |
| 20260509060503 | 18 | 198 | 0.0 | 0.0 | 0.00 | 0.00 | 0.00 | 25 | 1021.2 |
| 20260509060005 | 18 | 200 | 0.0 | 0.0 | 0.00 | 0.00 | 0.00 | 24 | 1021.1 |
| 20260509055504 | 18 | 259 | 0.0 | 0.0 | 0.00 | 0.00 | 0.00 | 24 | 1021.2 |
| 20260509055005 | 18 | 259 | 0.0 | 0.0 | 0.00 | 0.00 | 0.00 | 24 | 1021.2 |
| 20260509054503 | 19 | 259 | 0.0 | 0.0 | 0.00 | 0.00 | 0.00 | 24 | 1021.2 |
| 20260509054004 | 19 | 260 | 0.0 | 0.0 | 0.00 | 0.00 | 0.00 | 24 | 1021.2 |
| 20260509053504 | 20 | 260 | 0.0 | 0.0 | 0.00 | 0.00 | 0.00 | 24 | 1021.2 |
| 20260509052504 | 20 | 260 | 0.0 | 0.0 | 0.00 | 0.00 | 0.00 | 24 | 1021.2 |
| 20260509052005 | 20 | 260 | 0.0 | 0.0 | 0.00 | 0.00 | 0.00 | 23 | 1021.2 |
| 20260509051504 | 20 | 260 | 0.0 | 0.0 | 0.00 | 0.00 | 0.00 | 23 | 1021.1 |
| 20260509051003 | 20 | 260 | 0.0 | 0.0 | 0.00 | 0.00 | 0.00 | 22 | 1021.0 |
| 20260509050504 | 21 | 261 | 0.0 | 0.0 | 0.00 | 0.00 | 0.00 | 23 | 1021.0 |
| 20260509045503 | 21 | 261 | 0.0 | 0.0 | 0.00 | 0.00 | 0.00 | 23 | 1021.3 |
| 20260509045004 | 21 | 261 | 0.0 | 0.0 | 0.00 | 0.00 | 0.00 | 25 | 1021.2 |
| 20260509044504 | 22 | 261 | 0.0 | 0.0 | 0.00 | 0.00 | 0.00 | 26 | 1021.2 |
| 20260509043503 | 22 | 261 | 0.0 | 0.0 | 0.00 | 0.00 | 0.00 | 24 | 1021.1 |
| 20260509043004 | 22 | 261 | 0.0 | 0.0 | 0.00 | 0.00 | 0.00 | 24 | 1021.0 |
| 20260509042504 | 22 | 261 | 0.0 | 0.0 | 0.00 | 0.00 | 0.00 | 24 | 1020.8 |
| 20260509042004 | 22 | 261 | 0.0 | 0.0 | 0.00 | 0.00 | 0.00 | 24 | 1020.8 |
| 20260509041505 | 23 | 262 | 0.0 | 0.0 | 0.00 | 0.00 | 0.00 | 24 | 1020.7 |
| 20260509041004 | 23 | 263 | 0.0 | 0.0 | 0.00 | 0.00 | 0.00 | 24 | 1020.8 |
| 20260509040503 | 23 | 263 | 0.0 | 0.0 | 0.00 | 0.00 | 0.00 | 25 | 1020.7 |
| 20260509035504 | 25 | 288 | 0.0 | 0.0 | 0.00 | 0.00 | 0.00 | 24 | 1020.7 |
| 20260509035003 | 25 | 11 | 0.0 | 0.0 | 0.00 | 0.00 | 0.00 | 24 | 1020.7 |
| 20260509034504 | 25 | 13 | 0.0 | 0.0 | 0.00 | 0.00 | 0.00 | 25 | 1020.6 |
| 20260509034004 | 25 | 325 | 0.0 | 0.0 | 0.00 | 0.00 | 0.00 | 25 | 1020.6 |
| 20260509033503 | 25 | 300 | 0.0 | 0.0 | 0.00 | 0.00 | 0.00 | 25 | 1020.4 |
| 20260509033004 | 25 | 275 | 0.0 | 0.0 | 0.00 | 0.00 | 0.00 | 25 | 1020.3 |
| 20260509032504 | 25 | 250 | 0.0 | 0.0 | 0.00 | 0.00 | 0.00 | 25 | 1020.3 |
| 20260509032004 | 26 | 240 | 0.0 | 0.0 | 0.00 | 0.00 | 0.00 | 26 | 1020.3 |
| 20260509030505 | 26 | 214 | 0.0 | 0.0 | 0.00 | 0.00 | 0.00 | 26 | 1020.1 |
| 20260509025503 | 26 | 222 | 0.0 | 0.0 | 0.00 | 0.00 | 0.00 | 25 | 1019.9 |
| 20260509025003 | 26 | 227 | 0.0 | 0.0 | 0.00 | 0.00 | 0.00 | 25 | 1019.9 |
| 20260509024503 | 27 | 240 | 0.0 | 0.0 | 0.00 | 0.00 | 0.00 | 24 | 1019.8 |
| 20260509024004 | 27 | 224 | 0.0 | 9.7 | 0.00 | 0.00 | 0.00 | 24 | 1019.8 |
| 20260509023504 | 27 | 223 | 0.0 | 9.7 | 0.00 | 0.00 | 0.00 | 24 | 1019.8 |
| 20260509023004 | 27 | 230 | 0.0 | 0.0 | 0.00 | 0.00 | 0.00 | 24 | 1019.8 |
| 20260509022504 | 27 | 216 | 0.0 | 0.0 | 0.00 | 0.00 | 0.00 | 24 | 1019.7 |
| 20260509022003 | 28 | 213 | 0.0 | 16.1 | 0.00 | 0.00 | 0.00 | 24 | 1019.7 |
| 20260509021503 | 28 | 211 | 11.3 | 20.9 | 0.00 | 0.00 | 0.00 | 23 | 1019.7 |
| 20260509021003 | 28 | 215 | 11.3 | 19.3 | 0.00 | 0.00 | 0.00 | 23 | 1019.8 |
| 20260509020503 | 28 | 204 | 16.1 | 24.1 | 0.00 | 0.00 | 0.00 | 23 | 1019.8 |
| 20260509020004 | 28 | 216 | 14.5 | 24.1 | 0.00 | 0.00 | 0.00 | 23 | 1019.8 |
| 20260509015504 | 29 | 214 | 14.5 | 24.1 | 0.00 | 0.00 | 0.00 | 22 | 1019.7 |
| 20260509015004 | 29 | 208 | 14.5 | 25.7 | 0.00 | 0.00 | 0.00 | 21 | 1019.7 |
| 20260509014504 | 30 | 206 | 16.1 | 22.5 | 0.00 | 0.00 | 0.00 | 20 | 1019.7 |
| 20260509014004 | 30 | 211 | 14.5 | 22.5 | 0.00 | 0.00 | 0.00 | 18 | 1019.7 |
| 20260509013503 | 30 | 224 | 16.1 | 27.4 | 0.00 | 0.00 | 0.00 | 18 | 1019.7 |
| 20260509013004 | 30 | 209 | 14.5 | 20.9 | 0.00 | 0.00 | 0.00 | 16 | 1019.8 |
| 20260509012504 | 30 | 216 | 14.5 | 22.5 | 0.00 | 0.00 | 0.00 | 14 | 1019.7 |
| 20260509012003 | 30 | 217 | 16.1 | 24.1 | 0.00 | 0.00 | 0.00 | 15 | 1019.8 |
| 20260509011504 | 31 | 216 | 14.5 | 22.5 | 0.00 | 0.00 | 0.00 | 16 | 1019.8 |
| 20260509011004 | 31 | 201 | 16.1 | 29.0 | 0.00 | 0.00 | 0.00 | 16 | 1019.6 |
| 20260509010504 | 31 | 206 | 16.1 | 22.5 | 0.00 | 0.00 | 0.00 | 14 | 1019.8 |
| 20260509010003 | 31 | 215 | 17.7 | 24.1 | 0.00 | 0.00 | 0.00 | 14 | 1019.8 |
| 20260509005504 | 31 | 216 | 14.5 | 20.9 | 0.00 | 0.00 | 0.00 | 13 | 1019.7 |
| 20260509005004 | 31 | 215 | 17.7 | 27.4 | 0.00 | 0.00 | 0.00 | 12 | 1019.8 |
| 20260509004003 | 31 | 207 | 19.3 | 27.4 | 0.00 | 0.00 | 0.00 | 13 | 1020.1 |
| 20260509003504 | 32 | 202 | 14.5 | 24.1 | 0.00 | 0.00 | 0.00 | 12 | 1020.1 |
| 20260509003003 | 32 | 210 | 16.1 | 22.5 | 0.00 | 0.00 | 0.00 | 12 | 1020.2 |
| 20260509002503 | 32 | 210 | 16.1 | 25.7 | 0.00 | 0.00 | 0.00 | 11 | 1020.0 |
| 20260509002003 | 32 | 203 | 19.3 | 25.7 | 0.00 | 0.00 | 0.00 | 11 | 1020.2 |
| 20260509001504 | 32 | 223 | 14.5 | 24.1 | 0.00 | 0.00 | 0.00 | 11 | 1020.2 |
| 20260509000504 | 32 | 210 | 14.5 | 24.1 | 0.00 | 0.00 | 0.00 | 11 | 1020.4 |
| 20260509000003 | 32 | 215 | 14.5 | 24.1 | 0.00 | 0.00 | 0.00 | 10 | 1020.3 |
| 20260508235503 | 32 | 191 | 16.1 | 25.7 | 0.00 | 0.00 | 0.00 | 10 | 1020.3 |
| 20260508235004 | 32 | 214 | 14.5 | 22.5 | 0.00 | 0.00 | 0.00 | 10 | 1020.4 |
| 20260508234504 | 32 | 198 | 16.1 | 22.5 | 0.00 | 0.00 | 0.00 | 9 | 1020.3 |
| 20260508234003 | 33 | 223 | 14.5 | 25.7 | 0.00 | 0.00 | 0.00 | 10 | 1020.4 |
| 20260508233503 | 32 | 209 | 11.3 | 22.5 | 0.00 | 0.00 | 0.00 | 10 | 1020.4 |
| 20260508232503 | 33 | 181 | 20.9 | 29.0 | 0.00 | 0.00 | 0.00 | 10 | 1020.3 |
| 20260508232004 | 33 | 217 | 17.7 | 24.1 | 0.00 | 0.00 | 0.00 | 9 | 1020.4 |
| 20260508231504 | 33 | 195 | 16.1 | 25.7 | 0.00 | 0.00 | 0.00 | 9 | 1020.5 |
| 20260508231003 | 33 | 210 | 14.5 | 24.1 | 0.00 | 0.00 | 0.00 | 10 | 1020.6 |
| 20260508230504 | 33 | 200 | 20.9 | 29.0 | 0.00 | 0.00 | 0.00 | 9 | 1020.5 |
| 20260508225503 | 33 | 188 | 16.1 | 27.4 | 0.00 | 0.00 | 0.00 | 9 | 1020.6 |
| 20260508225003 | 33 | 196 | 16.1 | 29.0 | 0.00 | 0.00 | 0.00 | 9 | 1020.7 |
| 20260508224503 | 33 | 194 | 17.7 | 27.4 | 0.00 | 0.00 | 0.00 | 9 | 1020.5 |
| 20260508224004 | 33 | 228 | 17.7 | 25.7 | 0.00 | 0.00 | 0.00 | 9 | 1020.6 |
| 20260508223504 | 33 | 214 | 16.1 | 29.0 | 0.00 | 0.00 | 0.00 | 9 | 1020.6 |
| 20260508223004 | 33 | 225 | 17.7 | 27.4 | 0.00 | 0.00 | 0.00 | 9 | 1020.9 |
| 20260508222504 | 33 | 199 | 11.3 | 22.5 | 0.00 | 0.00 | 0.00 | 9 | 1021.0 |
| 20260508222004 | 33 | 219 | 14.5 | 22.5 | 0.00 | 0.00 | 0.00 | 9 | 1020.9 |
| 20260508221504 | 33 | 199 | 16.1 | 29.0 | 0.00 | 0.00 | 0.00 | 9 | 1021.0 |
| 20260508221004 | 33 | 174 | 19.3 | 32.2 | 0.00 | 0.00 | 0.00 | 9 | 1021.1 |
| 20260508220503 | 33 | 203 | 17.7 | 25.7 | 0.00 | 0.00 | 0.00 | 9 | 1021.2 |
| 20260508220003 | 33 | 183 | 19.3 | 29.0 | 0.00 | 0.00 | 0.00 | 9 | 1021.1 |
| 20260508215004 | 33 | 149 | 12.9 | 24.1 | 0.00 | 0.00 | 0.00 | 9 | 1021.2 |
| 20260508214503 | 33 | 236 | 9.7 | 19.3 | 0.00 | 0.00 | 0.00 | 9 | 1021.3 |
| 20260508214003 | 33 | 197 | 9.7 | 20.9 | 0.00 | 0.00 | 0.00 | 9 | 1021.3 |
| 20260508213503 | 33 | 166 | 16.1 | 24.1 | 0.00 | 0.00 | 0.00 | 9 | 1021.4 |
| 20260508213003 | 33 | 210 | 12.9 | 20.9 | 0.00 | 0.00 | 0.00 | 9 | 1021.4 |
| 20260508212503 | 33 | 182 | 14.5 | 22.5 | 0.00 | 0.00 | 0.00 | 9 | 1021.5 |
| 20260508212003 | 33 | 148 | 9.7 | 19.3 | 0.00 | 0.00 | 0.00 | 9 | 1021.5 |
| 20260508211503 | 32 | 116 | 8.0 | 19.3 | 0.00 | 0.00 | 0.00 | 9 | 1021.7 |
| 20260508211005 | 32 | 124 | 6.4 | 14.5 | 0.00 | 0.00 | 0.00 | 10 | 1021.7 |
| 20260508210003 | 33 | 206 | 11.3 | 19.3 | 0.00 | 0.00 | 0.00 | 9 | 1021.9 |
| 20260508205504 | 33 | 232 | 8.0 | 19.3 | 0.00 | 0.00 | 0.00 | 9 | 1021.9 |
| 20260508205004 | 33 | 168 | 3.2 | 14.5 | 0.00 | 0.00 | 0.00 | 10 | 1021.9 |
| 20260508204504 | 33 | 164 | 8.0 | 19.3 | 0.00 | 0.00 | 0.00 | 10 | 1021.9 |
| 20260508204004 | 33 | 148 | 11.3 | 20.9 | 0.00 | 0.00 | 0.00 | 9 | 1021.9 |
| 20260508203503 | 33 | 200 | 9.7 | 20.9 | 0.00 | 0.00 | 0.00 | 9 | 1021.9 |
| 20260508203004 | 33 | 219 | 11.3 | 22.5 | 0.00 | 0.00 | 0.00 | 10 | 1022.1 |
| 20260508202504 | 33 | 179 | 11.3 | 20.9 | 0.00 | 0.00 | 0.00 | 10 | 1022.1 |
| 20260508202004 | 33 | 192 | 1.6 | 14.5 | 0.00 | 0.00 | 0.00 | 10 | 1022.0 |
| 20260508201503 | 33 | 287 | 8.0 | 19.3 | 0.00 | 0.00 | 0.00 | 10 | 1022.0 |
| 20260508201004 | 32 | 33 | 3.2 | 11.3 | 0.00 | 0.00 | 0.00 | 10 | 1022.2 |
| 20260508200504 | 32 | 358 | 3.2 | 9.7 | 0.00 | 0.00 | 0.00 | 11 | 1022.3 |
| 20260508200005 | 32 | 103 | 3.2 | 16.1 | 0.00 | 0.00 | 0.00 | 11 | 1022.3 |
| 20260508195503 | 32 | 16 | 9.7 | 22.5 | 0.00 | 0.00 | 0.00 | 11 | 1022.3 |
| 20260508195003 | 32 | 347 | 8.0 | 14.5 | 0.00 | 0.00 | 0.00 | 10 | 1022.4 |
| 20260508194004 | 32 | 67 | 4.8 | 9.7 | 0.00 | 0.00 | 0.00 | 11 | 1022.5 |
| 20260508193503 | 32 | 344 | 8.0 | 19.3 | 0.00 | 0.00 | 0.00 | 11 | 1022.6 |
| 20260508192503 | 32 | 113 | 1.6 | 12.9 | 0.00 | 0.00 | 0.00 | 11 | 1022.7 |
| 20260508192004 | 31 | 15 | 4.8 | 16.1 | 0.00 | 0.00 | 0.00 | 12 | 1022.7 |
| 20260508191504 | 31 | 31 | 9.7 | 19.3 | 0.00 | 0.00 | 0.00 | 12 | 1022.7 |
| 20260508191004 | 31 | 35 | 9.7 | 27.4 | 0.00 | 0.00 | 0.00 | 11 | 1022.7 |
| 20260508190504 | 31 | 22 | 11.3 | 22.5 | 0.00 | 0.00 | 0.00 | 11 | 1022.9 |
| 20260508190003 | 31 | 11 | 11.3 | 20.9 | 0.00 | 0.00 | 0.00 | 12 | 1022.9 |
| 20260508185504 | 31 | 41 | 9.7 | 19.3 | 0.00 | 0.00 | 0.00 | 12 | 1023.0 |
| 20260508185003 | 31 | 27 | 9.7 | 16.1 | 0.00 | 0.00 | 0.00 | 12 | 1023.1 |
| 20260508184503 | 31 | 6 | 12.9 | 19.3 | 0.00 | 0.00 | 0.00 | 12 | 1023.2 |
| 20260508183503 | 31 | 22 | 11.3 | 16.1 | 0.00 | 0.00 | 0.00 | 12 | 1023.2 |
| 20260508183003 | 31 | 14 | 8.0 | 19.3 | 0.00 | 0.00 | 0.00 | 12 | 1023.2 |
| 20260508182504 | 31 | 37 | 6.4 | 16.1 | 0.00 | 0.00 | 0.00 | 12 | 1022.9 |
| 20260508182004 | 31 | 13 | 11.3 | 16.1 | 0.00 | 0.00 | 0.00 | 12 | 1022.9 |
| 20260508181504 | 31 | 10 | 11.3 | 19.3 | 0.00 | 0.00 | 0.00 | 13 | 1023.0 |
| 20260508181003 | 31 | 338 | 4.8 | 14.5 | 0.00 | 0.00 | 0.00 | 13 | 1023.2 |
| 20260508180504 | 31 | 54 | 1.6 | 4.8 | 0.00 | 0.00 | 0.00 | 13 | 1023.0 |
| 20260508180004 | 30 | 33 | 6.4 | 19.3 | 0.00 | 0.00 | 0.00 | 13 | 1023.0 |
| 20260508175004 | 31 | 18 | 9.7 | 24.1 | 0.00 | 0.00 | 0.00 | 13 | 1023.0 |
| 20260508174504 | 30 | 48 | 6.4 | 14.5 | 0.00 | 0.00 | 0.00 | 13 | 1022.9 |
| 20260508174004 | 30 | 24 | 8.0 | 16.1 | 0.00 | 0.00 | 0.00 | 13 | 1022.9 |
| 20260508173503 | 30 | 24 | 4.8 | 20.9 | 0.00 | 0.00 | 0.00 | 14 | 1022.9 |
| 20260508173004 | 30 | 27 | 9.7 | 16.1 | 0.00 | 0.00 | 0.00 | 14 | 1022.9 |
| 20260508172504 | 30 | 0 | 8.0 | 16.1 | 0.00 | 0.00 | 0.00 | 13 | 1022.9 |
| 20260508172004 | 30 | 10 | 4.8 | 16.1 | 0.00 | 0.00 | 0.00 | 14 | 1022.9 |
| 20260508171504 | 30 | 351 | 6.4 | 16.1 | 0.00 | 0.00 | 0.00 | 14 | 1022.9 |
| 20260508171004 | 30 | 342 | 3.2 | 16.1 | 0.00 | 0.00 | 0.00 | 14 | 1023.0 |
| 20260508170504 | 30 | 38 | 8.0 | 16.1 | 0.00 | 0.00 | 0.00 | 14 | 1022.9 |
| 20260508170004 | 29 | 5 | 9.7 | 19.3 | 0.00 | 0.00 | 0.00 | 15 | 1023.0 |
| 20260508165504 | 30 | 21 | 8.0 | 14.5 | 0.00 | 0.00 | 0.00 | 14 | 1023.0 |
| 20260508165004 | 29 | 273 | 1.6 | 4.8 | 0.00 | 0.00 | 0.00 | 14 | 1023.0 |
| 20260508164004 | 29 | 44 | 1.6 | 3.2 | 0.00 | 0.00 | 0.00 | 12 | 1022.9 |
| 20260508163503 | 30 | 44 | 3.2 | 4.8 | 0.00 | 0.00 | 0.00 | 12 | 1022.9 |
| 20260508163004 | 29 | 74 | 1.6 | 4.8 | 0.00 | 0.00 | 0.00 | 12 | 1023.0 |
| 20260508162504 | 29 | 93 | 3.2 | 4.8 | 0.00 | 0.00 | 0.00 | 13 | 1023.0 |
| 20260508162004 | 28 | 84 | 1.6 | 9.7 | 0.00 | 0.00 | 0.00 | 13 | 1022.9 |
| 20260508161504 | 28 | 74 | 1.6 | 4.8 | 0.00 | 0.00 | 0.00 | 13 | 1023.0 |
| 20260508161003 | 28 | 109 | 1.6 | 4.8 | 0.00 | 0.00 | 0.00 | 13 | 1023.1 |
| 20260508160503 | 28 | 88 | 3.2 | 4.8 | 0.00 | 0.00 | 0.00 | 13 | 1023.1 |
| 20260508160005 | 28 | 75 | 1.6 | 4.8 | 0.00 | 0.00 | 0.00 | 13 | 1023.1 |
| 20260508155504 | 28 | 85 | 1.6 | 4.8 | 0.00 | 0.00 | 0.00 | 13 | 1023.1 |
| 20260508155003 | 28 | 76 | 1.6 | 3.2 | 0.00 | 0.00 | 0.00 | 13 | 1023.1 |
| 20260508154004 | 27 | 67 | 1.6 | 3.2 | 0.00 | 0.00 | 0.00 | 14 | 1023.1 |
| 20260508153504 | 27 | 67 | 1.6 | 3.2 | 0.00 | 0.00 | 0.00 | 13 | 1023.2 |
| 20260508153004 | 27 | 68 | 1.6 | 4.8 | 0.00 | 0.00 | 0.00 | 14 | 1023.0 |
| 20260508152504 | 28 | 129 | 0.0 | 3.2 | 0.00 | 0.00 | 0.00 | 13 | 1023.0 |
| 20260508151004 | 27 | 162 | 0.0 | 1.6 | 0.00 | 0.00 | 0.00 | 14 | 1023.0 |
| 20260508150504 | 27 | 209 | 0.0 | 1.6 | 0.00 | 0.00 | 0.00 | 14 | 1023.0 |
| 20260508150004 | 26 | 209 | 0.0 | 0.0 | 0.00 | 0.00 | 0.00 | 15 | 1022.9 |
| 20260508145504 | 26 | 209 | 0.0 | 3.2 | 0.00 | 0.00 | 0.00 | 15 | 1023.1 |
| 20260508144504 | 25 | 209 | 3.2 | 4.8 | 0.00 | 0.00 | 0.00 | 16 | 1023.1 |
| 20260508144004 | 24 | 219 | 1.6 | 4.8 | 0.00 | 0.00 | 0.00 | 16 | 1023.2 |